FALCON 9 DEB (44776 NORAD) Tracking and Keplerian Element Data

This shows tracking and keplerian element data for the satellite.

Feedback or suggestion? Click here.




ElementValue
Catalog44776
NameFALCON 9 DEB
Epoch Orbit477
Epoch Day345.38915875
Epoch Year2019
RAAN17.3125
Inclination53.0044
Eccentricity0.0011971
Argument of Perigee75.0313
Mean Anonmoly285.2043
Mean Motion16.0581992
Decay Rate0.00203126
L11 44776U 19074BR 19345.38915875 .00203126 30005-4 27499-3 0 9997
L22 44776 53.0044 17.3125 0011971 75.0313 285.2043 16.05819920 4776

Live tracking and technical data element details for FALCON 9 DEB (NORAD 44776). FALCON 9 DEB can be tracked NOW for your location showing map with azimuth and elevation plus other details from your city location.

Track the satellite on the map from your city or location and see movement details for azimuth, elevation, latitude, longitude, range, height, and movement on the map or in text.







IsCatalogInMostPopularTable: catalog: 44776, numindb: 51
Update: records affected: 1



GetName: 44776 FALCON 9 DEB

Hit Count: updated at: Fri, 10 Apr 2020 19:38:08 GMT